Location: The Saddle
(36.8333°N, 80.3417°W)
Time: 21:28:54
(UTC-05:00)

Tiros 1 - All Passes

Search period start: 27 January 2022 00:00
Search period end: 06 February 2022 00:00
Orbit: 629 x 664 km, 48.4° (Epoch: 27 January)

Date Brightness Start Highest point End Pass type
(mag) Time Alt. Az. Time Alt. Az. Time Alt. Az.
27 Jan - 01:06:42 10° NW 01:10:15 20° N 01:13:48 10° NE night (unlit)
27 Jan - 02:49:22 10° NW 02:53:36 30° NNE 02:57:47 10° E night (unlit)
27 Jan - 04:31:24 10° WNW 04:36:09 76° SW 04:40:50 10° SE visible
27 Jan - 06:15:51 10° WSW 06:17:41 12° SW 06:19:30 10° SSW visible
27 Jan - 20:24:23 10° S 20:28:24 27° SE 20:32:26 10° ENE visible
27 Jan - 22:05:37 10° WSW 22:10:22 59° NNW 22:15:08 10° NE night (unlit)
27 Jan - 23:49:28 10° WNW 23:53:18 23° NNW 23:57:08 10° NE night (unlit)
28 Jan - 01:33:01 10° NW 01:36:45 22° N 01:40:27 10° ENE night (unlit)
28 Jan - 03:15:08 10° NW 03:19:48 50° NNE 03:24:23 10° ESE night (unlit)
28 Jan - 04:57:36 10° WNW 05:01:51 33° SW 05:06:03 10° SSE visible
28 Jan - 20:49:20 10° SW 20:54:03 62° SE 20:58:49 10° ENE visible
28 Jan - 22:32:07 10° W 22:36:30 34° NNW 22:40:52 10° NE night (unlit)
29 Jan - 00:16:12 10° NW 00:19:46 20° N 00:23:20 10° NE night (unlit)
29 Jan - 01:58:58 10° NW 02:03:09 29° NNE 02:07:17 10° E night (unlit)
29 Jan - 03:40:57 10° NW 03:45:45 83° SW 03:50:28 10° SE visible
29 Jan - 05:25:00 10° W 05:27:20 14° SW 05:29:40 10° SSW visible
29 Jan - 19:34:10 10° S 19:38:02 25° SE 19:41:55 10° ENE visible
29 Jan - 21:15:10 10° WSW 21:19:56 63° NNW 21:24:43 10° NE visible
29 Jan - 22:58:56 10° WNW 23:02:50 24° NNW 23:06:43 10° NE night (unlit)
30 Jan - 00:42:35 10° NW 00:46:16 21° N 00:49:57 10° ENE night (unlit)
30 Jan - 02:24:43 10° NW 02:29:21 46° NNE 02:33:56 10° ESE night (unlit)
30 Jan - 04:07:07 10° WNW 04:11:29 36° SW 04:15:47 10° SSE visible
30 Jan - 19:58:58 10° SW 20:03:39 57° SE 20:08:22 10° ENE visible
30 Jan - 21:41:37 10° W 21:46:02 35° NNW 21:50:29 10° NE visible
30 Jan - 23:25:42 10° NW 23:29:18 20° N 23:32:52 10° NE night (unlit)
31 Jan - 01:08:33 10° NW 01:12:40 28° NNE 01:16:47 10° ENE night (unlit)
31 Jan - 02:50:32 10° NW 02:55:21 90° SSW 03:00:06 10° SE night (unlit)
31 Jan - 04:34:15 10° W 04:36:59 15° SW 04:39:43 10° SSW night (unlit)
31 Jan - 18:43:58 10° S 18:47:39 22° SE 18:51:21 10° E visible
31 Jan - 20:24:44 10° WSW 20:29:30 68° NNW 20:34:19 10° NE visible
31 Jan - 22:08:25 10° WNW 22:12:21 24° NNW 22:16:18 10° NE night (unlit)
31 Jan - 23:52:07 10° NW 23:55:47 21° N 23:59:27 10° ENE night (unlit)
01 Feb - 01:34:19 10° NW 01:38:55 43° NNE 01:43:28 10° E night (unlit)
01 Feb - 03:16:38 10° WNW 03:21:06 40° SW 03:25:30 10° SSE night (unlit)
01 Feb - 19:08:38 10° SW 19:13:15 52° SE 19:17:56 10° ENE visible
01 Feb - 20:51:07 10° W 20:55:35 37° NNW 21:00:05 10° NE visible
01 Feb - 22:35:12 10° NW 22:38:49 20° N 22:42:25 10° NE night (unlit)
02 Feb - 00:18:07 10° NW 00:22:12 27° NNE 00:26:16 10° ENE night (unlit)
02 Feb - 02:00:06 10° NW 02:04:55 84° NE 02:09:41 10° SE night (unlit)
02 Feb - 03:43:34 10° W 03:46:38 17° SW 03:49:40 10° S night (unlit)
02 Feb - 17:53:49 10° S 17:57:17 20° SE 18:00:46 10° E daylight
02 Feb - 19:34:18 10° WSW 19:39:04 74° NW 19:43:54 10° NE visible
02 Feb - 21:17:53 10° WNW 21:21:53 25° NNW 21:25:53 10° NE visible
02 Feb - 23:01:39 10° NW 23:05:18 21° N 23:08:57 10° NE night (unlit)
03 Feb - 00:43:54 10° NW 00:48:28 41° NNE 00:52:59 10° E night (unlit)
03 Feb - 02:26:09 10° WNW 02:30:42 44° SW 02:35:12 10° SSE night (unlit)
03 Feb - 18:18:18 10° SSW 18:22:51 47° SE 18:27:27 10° ENE visible
03 Feb - 20:00:38 10° W 20:05:08 40° NNW 20:09:40 10° NE visible
03 Feb - 21:44:41 10° NW 21:48:19 21° N 21:51:57 10° NE visible
03 Feb - 23:27:42 10° NW 23:31:44 26° NNE 23:35:45 10° ENE night (unlit)
04 Feb - 01:09:41 10° NW 01:14:31 78° NE 01:19:16 10° ESE night (unlit)
04 Feb - 02:52:56 10° W 02:56:16 19° SW 02:59:34 10° S night (unlit)
04 Feb - 17:03:41 10° S 17:06:54 18° SE 17:10:09 10° E daylight
04 Feb - 18:43:52 10° WSW 18:48:39 80° NW 18:53:28 10° NE visible
04 Feb - 20:27:21 10° WNW 20:31:24 26° NNW 20:35:28 10° NE visible
04 Feb - 22:11:12 10° NW 22:14:49 21° N 22:18:26 10° NE night (unlit)
04 Feb - 23:53:30 10° NW 23:58:01 39° NNE 00:02:30 10° E night (unlit)
05 Feb - 01:35:41 10° WNW 01:40:19 48° SW 01:44:53 10° SSE night (unlit)
05 Feb - 17:27:59 10° SSW 17:32:28 42° SE 17:37:00 10° ENE daylight
05 Feb - 19:10:08 10° W 19:14:40 42° NNW 19:19:15 10° NE visible
05 Feb - 20:54:11 10° NW 20:57:50 21° N 21:01:29 10° NE visible
05 Feb - 22:37:16 10° NW 22:41:15 25° NNE 22:45:14 10° ENE night (unlit)
